| Back to River Map | <<< Previous Forecast Point | | | Next Forecast Point >>> | Printer Version | Graph Version |  |
|
PIT RIVER - CANBY (CNBC1)
| Latitude: 41.41º N | Longitude: 120.93º W | Elevation: 4266 Feet | | Forecast Type: Official Location |
| Location: Modoc County in California | Bulletin Group: Upper Sacramento | River Group: Upper Sacramento |
| Issuance Time: | Sep 03 2026 at 7:00 AM PDT | Next Issuance: | Sep 04 2026 at 9:00 AM PDT
| |
| Action: 7.5 Feet | Minor Flood: 8.5 Feet | Moderate Flood: 9.0 Feet | Major Flood: 10.0 Feet |
# Tabular Observed and Forecast Hydrograph Information
#
# Location: Pit River - Canby (CNBC1)
#
# File Generation Time: 09/03/2026 at 07:00 AM PDT
# Data Interval: 1 Hour
#
# Most Recent Date & Time of Maximum Observed: 09/03/2026 at 06:00 AM PDT
# Maximum Observed Stage: 2.51 Feet
# Maximum Observed Flow: 20 cfs
#
# Earliest Date & Time of Maximum Forecast: 09/06/2026 at 06:00 PM PDT
# Maximum Forecast Stage: 2.57 Feet
# Maximum Forecast Flow: 25 cfs
#
# OBSERVED
#
# Date & Time (Local) Stage (Feet) Flow (cfs) Trend Observed Status
# ---------------------------------------------------------------------------------
08/29/2026 07 AM PDT 2.16 3 Normal
08/29/2026 08 AM PDT 2.16 3 0 Normal
08/29/2026 09 AM PDT 2.17 3 + Normal
08/29/2026 10 AM PDT 2.17 3 0 Normal
08/29/2026 11 AM PDT 2.17 3 0 Normal
08/29/2026 12 PM PDT 2.16 3 - Normal
08/29/2026 01 PM PDT 2.16 3 0 Normal
08/29/2026 02 PM PDT 2.16 3 0 Normal
08/29/2026 03 PM PDT 2.16 3 0 Normal
08/29/2026 04 PM PDT 2.15 3 - Normal
08/29/2026 05 PM PDT 2.15 3 0 Normal
08/29/2026 06 PM PDT 2.15 3 0 Normal
08/29/2026 07 PM PDT 2.15 3 0 Normal
08/29/2026 08 PM PDT 2.15 3 0 Normal
08/29/2026 09 PM PDT 2.15 3 0 Normal
08/29/2026 10 PM PDT 2.15 3 0 Normal
08/29/2026 11 PM PDT 2.16 3 + Normal
08/30/2026 12 AM PDT 2.16 3 0 Normal
08/30/2026 01 AM PDT 2.16 3 0 Normal
08/30/2026 02 AM PDT 2.17 3 + Normal
08/30/2026 03 AM PDT 2.18 4 + Normal
08/30/2026 04 AM PDT 2.18 4 0 Normal
08/30/2026 05 AM PDT 2.18 4 0 Normal
08/30/2026 06 AM PDT 2.18 4 0 Normal
08/30/2026 07 AM PDT 2.18 4 0 Normal
08/30/2026 08 AM PDT 2.18 4 0 Normal
08/30/2026 09 AM PDT 2.18 4 0 Normal
08/30/2026 10 AM PDT 2.18 4 0 Normal
08/30/2026 11 AM PDT 2.18 4 0 Normal
08/30/2026 12 PM PDT 2.18 4 0 Normal
08/30/2026 01 PM PDT 2.18 4 0 Normal
08/30/2026 02 PM PDT 2.18 4 0 Normal
08/30/2026 03 PM PDT 2.17 3 - Normal
08/30/2026 04 PM PDT 2.17 3 0 Normal
08/30/2026 05 PM PDT 2.16 3 - Normal
08/30/2026 06 PM PDT 2.16 3 0 Normal
08/30/2026 07 PM PDT 2.16 3 0 Normal
08/30/2026 08 PM PDT 2.17 3 + Normal
08/30/2026 09 PM PDT 2.17 3 0 Normal
08/30/2026 10 PM PDT 2.16 3 - Normal
08/30/2026 11 PM PDT 2.17 3 + Normal
08/31/2026 12 AM PDT 2.17 3 0 Normal
08/31/2026 01 AM PDT 2.18 4 + Normal
08/31/2026 02 AM PDT 2.18 4 0 Normal
08/31/2026 03 AM PDT 2.18 4 0 Normal
08/31/2026 04 AM PDT 2.18 4 0 Normal
08/31/2026 05 AM PDT 2.19 4 + Normal
08/31/2026 06 AM PDT 2.18 4 - Normal
08/31/2026 07 AM PDT 2.19 4 + Normal
08/31/2026 08 AM PDT 2.18 4 - Normal
08/31/2026 09 AM PDT 2.19 4 + Normal
08/31/2026 10 AM PDT 2.19 4 0 Normal
08/31/2026 11 AM PDT 2.18 4 - Normal
08/31/2026 12 PM PDT 2.18 4 0 Normal
08/31/2026 01 PM PDT 2.18 4 0 Normal
08/31/2026 02 PM PDT 2.17 3 - Normal
08/31/2026 03 PM PDT 2.17 3 0 Normal
08/31/2026 04 PM PDT 2.17 3 0 Normal
08/31/2026 05 PM PDT 2.16 3 - Normal
08/31/2026 06 PM PDT 2.16 3 0 Normal
08/31/2026 07 PM PDT 2.16 3 0 Normal
08/31/2026 08 PM PDT 2.16 3 0 Normal
08/31/2026 09 PM PDT 2.15 3 - Normal
08/31/2026 10 PM PDT 2.15 3 0 Normal
08/31/2026 11 PM PDT 2.15 3 0 Normal
09/01/2026 12 AM PDT 2.15 3 0 Normal
09/01/2026 01 AM PDT 2.15 3 0 Normal
09/01/2026 02 AM PDT 2.15 3 0 Normal
09/01/2026 03 AM PDT 2.15 3 0 Normal
09/01/2026 04 AM PDT 2.14 3 - Normal
09/01/2026 05 AM PDT 2.13 3 - Normal
09/01/2026 06 AM PDT 2.13 3 0 Normal
09/01/2026 07 AM PDT 2.14 3 + Normal
09/01/2026 08 AM PDT 2.16 3 + Normal
09/01/2026 09 AM PDT 2.17 3 + Normal
09/01/2026 10 AM PDT 2.17 3 0 Normal
09/01/2026 11 AM PDT 2.17 3 0 Normal
09/01/2026 12 PM PDT 2.17 3 0 Normal
09/01/2026 01 PM PDT 2.17 3 0 Normal
09/01/2026 02 PM PDT 2.17 3 0 Normal
09/01/2026 03 PM PDT 2.18 4 + Normal
09/01/2026 04 PM PDT 2.18 4 0 Normal
09/01/2026 05 PM PDT 2.18 4 0 Normal
09/01/2026 06 PM PDT 2.19 4 + Normal
09/01/2026 07 PM PDT 2.19 4 0 Normal
09/01/2026 08 PM PDT 2.20 4 + Normal
09/01/2026 09 PM PDT 2.20 4 0 Normal
09/01/2026 10 PM PDT 2.21 5 + Normal
09/01/2026 11 PM PDT 2.21 5 0 Normal
09/02/2026 12 AM PDT 2.22 5 + Normal
09/02/2026 01 AM PDT 2.22 5 0 Normal
09/02/2026 02 AM PDT 2.22 5 0 Normal
09/02/2026 03 AM PDT 2.23 5 + Normal
09/02/2026 04 AM PDT 2.23 5 0 Normal
09/02/2026 05 AM PDT 2.24 5 + Normal
09/02/2026 06 AM PDT 2.24 5 0 Normal
09/02/2026 07 AM PDT 2.24 5 0 Normal
09/02/2026 08 AM PDT 2.25 6 + Normal
09/02/2026 09 AM PDT 2.24 5 - Normal
09/02/2026 10 AM PDT 2.23 5 - Normal
09/02/2026 11 AM PDT 2.22 5 - Normal
09/02/2026 12 PM PDT 2.22 5 0 Normal
09/02/2026 01 PM PDT 2.22 5 0 Normal
09/02/2026 02 PM PDT 2.22 5 0 Normal
09/02/2026 03 PM PDT 2.23 5 + Normal
09/02/2026 04 PM PDT 2.24 5 + Normal
09/02/2026 05 PM PDT 2.27 6 + Normal
09/02/2026 06 PM PDT 2.27 6 0 Normal
09/02/2026 07 PM PDT 2.27 6 0 Normal
09/02/2026 08 PM PDT 2.29 7 + Normal
09/02/2026 09 PM PDT 2.33 9 + Normal
09/02/2026 10 PM PDT 2.36 10 + Normal
09/02/2026 11 PM PDT 2.44 15 + Normal
09/03/2026 12 AM PDT 2.45 15 + Normal
09/03/2026 01 AM PDT 2.47 17 + Normal
09/03/2026 02 AM PDT 2.49 18 + Normal
09/03/2026 03 AM PDT 2.50 19 + Normal
09/03/2026 04 AM PDT 2.50 19 0 Normal
09/03/2026 05 AM PDT 2.51 20 + Normal
09/03/2026 06 AM PDT 2.51 20 0 Normal
#
# FORECAST
#
# Date & Time (Local) Stage (Feet) Flow (cfs) Trend Forecast Status
# ---------------------------------------------------------------------------------
09/03/2026 07 AM PDT 2.51 20 Normal
09/03/2026 08 AM PDT 2.51 20 0 Normal
09/03/2026 09 AM PDT 2.51 20 0 Normal
09/03/2026 10 AM PDT 2.51 20 0 Normal
09/03/2026 11 AM PDT 2.51 20 0 Normal
09/03/2026 12 PM PDT 2.51 20 0 Normal
09/03/2026 01 PM PDT 2.51 20 0 Normal
09/03/2026 02 PM PDT 2.51 20 0 Normal
09/03/2026 03 PM PDT 2.51 20 0 Normal
09/03/2026 04 PM PDT 2.51 20 0 Normal
09/03/2026 05 PM PDT 2.51 20 0 Normal
09/03/2026 06 PM PDT 2.53 21 + Normal
09/03/2026 07 PM PDT 2.53 21 0 Normal
09/03/2026 08 PM PDT 2.53 21 0 Normal
09/03/2026 09 PM PDT 2.53 21 0 Normal
09/03/2026 10 PM PDT 2.53 21 0 Normal
09/03/2026 11 PM PDT 2.53 21 0 Normal
09/04/2026 12 AM PDT 2.53 21 0 Normal
09/04/2026 01 AM PDT 2.53 21 0 Normal
09/04/2026 02 AM PDT 2.53 21 0 Normal
09/04/2026 03 AM PDT 2.53 21 0 Normal
09/04/2026 04 AM PDT 2.53 21 0 Normal
09/04/2026 05 AM PDT 2.52 20 - Normal
09/04/2026 06 AM PDT 2.52 20 0 Normal
09/04/2026 07 AM PDT 2.52 20 0 Normal
09/04/2026 08 AM PDT 2.52 20 0 Normal
09/04/2026 09 AM PDT 2.52 20 0 Normal
09/04/2026 10 AM PDT 2.52 20 0 Normal
09/04/2026 11 AM PDT 2.52 20 0 Normal
09/04/2026 12 PM PDT 2.52 20 0 Normal
09/04/2026 01 PM PDT 2.52 20 0 Normal
09/04/2026 02 PM PDT 2.52 20 0 Normal
09/04/2026 03 PM PDT 2.52 20 0 Normal
09/04/2026 04 PM PDT 2.52 20 0 Normal
09/04/2026 05 PM PDT 2.52 20 0 Normal
09/04/2026 06 PM PDT 2.54 22 + Normal
09/04/2026 07 PM PDT 2.54 22 0 Normal
09/04/2026 08 PM PDT 2.54 22 0 Normal
09/04/2026 09 PM PDT 2.54 22 0 Normal
09/04/2026 10 PM PDT 2.54 22 0 Normal
09/04/2026 11 PM PDT 2.54 22 0 Normal
09/05/2026 12 AM PDT 2.54 22 0 Normal
09/05/2026 01 AM PDT 2.54 22 0 Normal
09/05/2026 02 AM PDT 2.54 22 0 Normal
09/05/2026 03 AM PDT 2.54 22 0 Normal
09/05/2026 04 AM PDT 2.54 22 0 Normal
09/05/2026 05 AM PDT 2.54 22 0 Normal
09/05/2026 06 AM PDT 2.54 22 0 Normal
09/05/2026 07 AM PDT 2.54 22 0 Normal
09/05/2026 08 AM PDT 2.54 22 0 Normal
09/05/2026 09 AM PDT 2.54 22 0 Normal
09/05/2026 10 AM PDT 2.54 22 0 Normal
09/05/2026 11 AM PDT 2.54 22 0 Normal
09/05/2026 12 PM PDT 2.54 22 0 Normal
09/05/2026 01 PM PDT 2.54 22 0 Normal
09/05/2026 02 PM PDT 2.54 22 0 Normal
09/05/2026 03 PM PDT 2.54 22 0 Normal
09/05/2026 04 PM PDT 2.54 22 0 Normal
09/05/2026 05 PM PDT 2.54 22 0 Normal
09/05/2026 06 PM PDT 2.56 24 + Normal
09/05/2026 07 PM PDT 2.56 24 0 Normal
09/05/2026 08 PM PDT 2.56 24 0 Normal
09/05/2026 09 PM PDT 2.56 24 0 Normal
09/05/2026 10 PM PDT 2.56 24 0 Normal
09/05/2026 11 PM PDT 2.56 24 0 Normal
09/06/2026 12 AM PDT 2.56 24 0 Normal
09/06/2026 01 AM PDT 2.56 24 0 Normal
09/06/2026 02 AM PDT 2.56 24 0 Normal
09/06/2026 03 AM PDT 2.56 24 0 Normal
09/06/2026 04 AM PDT 2.55 23 - Normal
09/06/2026 05 AM PDT 2.55 23 0 Normal
09/06/2026 06 AM PDT 2.55 23 0 Normal
09/06/2026 07 AM PDT 2.55 23 0 Normal
09/06/2026 08 AM PDT 2.55 23 0 Normal
09/06/2026 09 AM PDT 2.55 23 0 Normal
09/06/2026 10 AM PDT 2.55 23 0 Normal
09/06/2026 11 AM PDT 2.55 23 0 Normal
09/06/2026 12 PM PDT 2.55 23 0 Normal
09/06/2026 01 PM PDT 2.55 23 0 Normal
09/06/2026 02 PM PDT 2.55 23 0 Normal
09/06/2026 03 PM PDT 2.55 23 0 Normal
09/06/2026 04 PM PDT 2.55 23 0 Normal
09/06/2026 05 PM PDT 2.55 23 0 Normal
09/06/2026 06 PM PDT 2.57 25 + Normal
09/06/2026 07 PM PDT 2.57 25 0 Normal
09/06/2026 08 PM PDT 2.57 25 0 Normal
09/06/2026 09 PM PDT 2.56 24 - Normal
09/06/2026 10 PM PDT 2.56 24 0 Normal
09/06/2026 11 PM PDT 2.56 24 0 Normal
09/07/2026 12 AM PDT 2.56 24 0 Normal
09/07/2026 01 AM PDT 2.56 24 0 Normal
09/07/2026 02 AM PDT 2.56 24 0 Normal
09/07/2026 03 AM PDT 2.56 24 0 Normal
09/07/2026 04 AM PDT 2.56 24 0 Normal
09/07/2026 05 AM PDT 2.56 24 0 Normal
09/07/2026 06 AM PDT 2.56 24 0 Normal
09/07/2026 07 AM PDT 2.56 24 0 Normal
09/07/2026 08 AM PDT 2.56 24 0 Normal
09/07/2026 09 AM PDT 2.56 24 0 Normal
09/07/2026 10 AM PDT 2.56 24 0 Normal
09/07/2026 11 AM PDT 2.56 24 0 Normal
09/07/2026 12 PM PDT 2.56 24 0 Normal
09/07/2026 01 PM PDT 2.56 24 0 Normal
09/07/2026 02 PM PDT 2.56 24 0 Normal
09/07/2026 03 PM PDT 2.55 23 - Normal
09/07/2026 04 PM PDT 2.55 23 0 Normal
09/07/2026 05 PM PDT 2.55 23 0 Normal
09/07/2026 06 PM PDT 2.57 25 + Normal
09/07/2026 07 PM PDT 2.57 25 0 Normal
09/07/2026 08 PM PDT 2.57 25 0 Normal
09/07/2026 09 PM PDT 2.57 25 0 Normal
09/07/2026 10 PM PDT 2.57 25 0 Normal
09/07/2026 11 PM PDT 2.57 25 0 Normal
09/08/2026 12 AM PDT 2.57 25 0 Normal
09/08/2026 01 AM PDT 2.57 25 0 Normal
09/08/2026 02 AM PDT 2.56 24 - Normal
09/08/2026 03 AM PDT 2.56 24 0 Normal
09/08/2026 04 AM PDT 2.56 24 0 Normal
09/08/2026 05 AM PDT 2.56 24 0 Normal
#
# NOTE 1: Stages are rounded to the nearest hundredth (.01) of a foot.
# NOTE 2: Flows are rounded to the nearest (1) cfs.
# NOTE 3: Trends are determined using hourly change in unrounded stage and flow.
# NOTE 4: Maximum Values are determined using unrounded stage and flow.
|